Regional Weather Roundup
Issued by NWS

Home | Current Version | Previous Version | Graphics & Text | Print | Product List | Glossary Off
Versions: 1 2 3 4 5 6 7 8 9 10 11 12 13 14 15 16 17 18 19 20 21 22 23 24 25 26 27 28 29 30 31 32 33 34 35 36 37 38 39 40 41 42 43 44 45 46 47 48 49 50

000
ASUS43 KMPX 292001
RWRMN
WEATHER ROUNDUP FOR MINNESOTA
NATIONAL WEATHER SERVICE TWIN CITIES/CHANHASSEN MN
300 PM CDT MON JUN 29 2015


NOTE: "FAIR" INDICATES FEW OR NO CLOUDS BELOW 12,000 FEET WITH NO
SIGNIFICANT WEATHER AND/OR OBSTRUCTIONS TO VISIBILITY. N/A MEANS
CURRENT SKY AND/OR WEATHER CONDITIONS ARE NOT AVAILABLE.

MNZ060>063-068>070-292100-
   Twin Cities Metro

CITY           SKY/WX    TMP DP  RH WIND       PRES   REMARKS
TWIN CITIES    PTSUNNY   82  63  52 W12G17    29.79F
ST PAUL        MOSUNNY   79  61  53 NW16      29.79S
CRYSTAL        MOSUNNY   82  62  50 W12       29.78F
BLAINE         PTSUNNY   81  63  54 W9G16     29.80S
LAKEVILLE      SUNNY     79  64  61 W10       29.81F
EDEN PRAIRIE   MOSUNNY   83  64  52 W10       29.79F
SOUTH ST PAUL  MOSUNNY   81  59  46 W9        29.79F
LAKE ELMO      FAIR      81  63  54 NW9       29.80F
$$
MNZ001>005-007-008-013>017-022>024-027-028-292100-
   Northwest Minnesota

CITY           SKY/WX    TMP DP  RH WIND       PRES   REMARKS
BEMIDJI        PTSUNNY   78  61  54 N9G17     29.84R
HALLOCK        SUNNY     77  63  61 N12G17    29.87S
ROSEAU         SUNNY     79  61  53 N10       29.85S
WARROAD        PTSUNNY   73  64  73 E8        29.86R
THIEF RVR FALL MOSUNNY   79  61  53 NW12      29.86S
CROOKSTON      SUNNY     77  64  65 N10       29.87S
FOSSTON        MOSUNNY   77  63  61 N9        29.86S
DETROIT LAKES  SUNNY     77  61  57 NW10      29.87S
MOORHEAD       SUNNY     75  64  69 N10       29.87R
PARK RAPIDS    MOSUNNY   81  61  50 NW15      29.82F
MAHNOMEN       FAIR      77  63  62 N8        29.86R
$$
MNZ006-009>011-018-025>026-292100-
   North Central Minnesota

CITY           SKY/WX    TMP DP  RH WIND       PRES   REMARKS
BAUDETTE       SUNNY     76  60  57 NW13      29.83S
FLAG ISLAND    MOSUNNY   70  57  64 N15       29.86R
INTL FALLS     PTSUNNY   74  60  61 N10       29.82R
WASKISH        SUNNY     79  61  53 NW9       29.83R
BIG FORK       MOSUNNY  N/A N/A N/A N8        29.80S
LONGVILLE      SUNNY     79  64  61 NW9G16    29.80S
GRAND RAPIDS   MOSUNNY   79  59  50 N17       29.79R
CRANE LAKE     PTSUNNY   70  61  73 N7        29.81S
ORR            MOSUNNY   73  55  53 NW5       29.77S
COOK           MOSUNNY   75  59  57 NW7       29.79S
WALKER         FAIR      77  61  57 NW7       29.81S
$$
MNZ012-019>021-037-292100-
   Northeast Minnesota

CITY           SKY/WX    TMP DP  RH WIND       PRES   REMARKS
DULUTH         MOSUNNY   76  59  55 N7        29.76F
ELY            SUNNY     72  55  56 NW10G18   29.78S
HIBBING        SUNNY     78  60  53 N13       29.78S
EVELETH        MOSUNNY   72  59  64 N8        29.80R
DULUTH HARBOR  PTSUNNY   70  64  83 SW12      29.75S THUNDER
TWO HARBORS    MOSUNNY  N/A N/A N/A N6        29.74S
GRAND MARAIS     N/A     57  55  93 SW3       29.73F
G MARAIS ARPRT LGT RAIN  64  57  77 NW3       29.78S
$$
MNZ029>031-032-039>041-046>048-054>057-064-292100-
   West Central Minnesota

CITY           SKY/WX    TMP DP  RH WIND       PRES   REMARKS
FERGUS FALLS   SUNNY     75  64  69 NW9       29.85S
WHEATON        SUNNY     75  64  69 W9        29.88S
MORRIS         SUNNY     79  63  57 NW13G20   29.85F
ALEXANDRIA     SUNNY     77  65  66 W12       29.86F
ELBOW LAKE     FAIR      76  66  71 NW10      29.86S
WADENA         SUNNY     77  63  61 NW12      29.83S
GLENWOOD       SUNNY     79  63  57 W12G17    29.85F
APPLETON       SUNNY     82  61  47 W9        29.86S
BENSON         SUNNY     81  63  54 NW9       29.85F
ORTONVILLE     SUNNY     81  61  50 NW14G20   29.87S
MADISON        SUNNY     81  57  44 W13       29.87F
WILLMAR        FAIR      81  64  57 W10       29.86F
$$
MNZ033>034-036-042>043-049>051-058-059-292100-
   Central Minnesota

CITY           SKY/WX    TMP DP  RH WIND       PRES   REMARKS
ST CLOUD       MOSUNNY   83  63  50 W14       29.79F
SAUK CENTRE    FAIR      78  63  60 W12       29.83F
PAYNESVILLE    SUNNY     75  64  66 SW10      29.84F
AITKIN         SUNNY     81  64  57 NW6G17    29.76S
PINE RIVER     SUNNY     81  63  54 NW12      29.83S
BRAINERD       SUNNY     82  61  48 W13G20    29.78F
STAPLES        SUNNY     81  61  50 W14G20    29.81F
LONG PRAIRIE   FAIR      77  61  57 W12G17    29.83F
LITTLE FALLS   SUNNY     81  57  44 W12       29.80F
LITCHFIELD     SUNNY     81  63  54 W12G17    29.84F
BUFFALO        SUNNY     82  61  50 W10       29.81F
MAPLE LAKE     SUNNY     82  66  58 W9        29.82F
$$
MNZ037-044-045-052-053-292100-
   East Central Minnesota

CITY           SKY/WX    TMP DP  RH WIND       PRES   REMARKS
PRINCETON      MOSUNNY   73  66  78 S8        29.80F
MORA           MOSUNNY   75  59  57 W8        29.79F
CAMBRIDGE      PTSUNNY   79  64  61 CALM      29.77F
RUSH CITY      MOSUNNY   80  64  57 W9        29.77F
MOOSE LAKE     TSTM      59  59 100 W12G17    29.77R VSB 3/4
HINCKLEY       FAIR      81  63  54 SW8       29.78S
CLOQUET        PTSUNNY   66  63  88 S7        29.78S
MCGREGOR       MOSUNNY   81  63  54 W13G18    29.76S
$$
MNZ071>073-080-081-089-090-097-098-292100-
   Southwest Minnesota

CITY           SKY/WX    TMP DP  RH WIND       PRES   REMARKS
MONTEVIDEO     SUNNY     81  64  57 NW8       29.87F
GRANITE FALLS  SUNNY     79  64  61 W9        29.89S
CANBY          SUNNY     79  61  54 W9        29.90S
MARSHALL       SUNNY     79  57  47 NW16      29.89F
REDWOOD FALLS  SUNNY     80  65  59 W15       29.86F
OLIVIA         SUNNY     77  63  61 W14       29.86S
PIPESTONE      SUNNY     79  57  47 NW12      29.94S
WINDOM         SUNNY     79  61  53 NW13G18   29.90S
WORTHINGTON    SUNNY     79  61  53 W9G16     29.92S
JACKSON        SUNNY     81  61  50 NW13      29.91S
TRACY          SUNNY     81  63  55 NW8       29.89F
SLAYTON        SUNNY     80  59  48 NW12      29.92F
$$
MNZ065>067-074>077-082>085-091>093-292100-
   South Central Minnesota

CITY           SKY/WX    TMP DP  RH WIND       PRES   REMARKS
MANKATO        SUNNY     81  63  54 W10       29.84S
NEW ULM        SUNNY     79  64  61 W13       29.85S
ST JAMES       SUNNY     81  66  61 W12G17    29.87F
FAIRMONT       SUNNY     81  61  50 NW10      29.88S
GLENCOE        SUNNY     83  66  57 W9G17     29.82F
FARIBAULT      SUNNY     81  64  57 W10       29.83S
OWATONNA       MOSUNNY   81  61  50 NW14      29.84S
WASECA         SUNNY     79  63  57 NW9G17    29.86S
ALBERT LEA     MOSUNNY   81  64  57 W7        29.85F
$$
MNZ078>079-086>088-094>096-292100-
   Southeast Minnesota

CITY           SKY/WX    TMP DP  RH WIND       PRES   REMARKS
ROCHESTER      MOSUNNY   80  64  58 NW15      29.83F
RED WING       MOSUNNY   84  59  42 W10G16    29.77F
DODGE CENTER   MOSUNNY   79  63  57 NW14G20   29.84S
WINONA         SUNNY     79  63  57 N5        29.78F
AUSTIN         MOSUNNY   79  63  57 NW8       29.84S
PRESTON        MOSUNNY   78  63  58 NW12      29.82F
$$
ABBREVIATIONS USED IN REMARKS
   TC - TEMPERATURES IN CELSIUS
  WCI - WIND CHILL INDEX
   HX - HEAT INDEX
  VSB - VISIBILITY
$$



USA.gov is the U.S. government's official web portal to all federal, state and local government web resources and services.